Flag for Germany Weather past 2 weeks in Pirna, Saxony, Germany

Now
61 °F

Sprinkles. Low clouds.


Feels Like: 61 °F
Forecast: 53 / 69 °F
Wind: 8 mph from Northwest

Location: Dresden-Klotzsche

Current Time: Sep 1, 2015 at 10:42:46 PM

Latest Report: Sep 1, 2015 at 10:00 PM


Visibility: 11 mi

Pressure: 29.87 "Hg

Humidity: 96%

Dew point: 60 °F

Location of PirnaLocation

Historic Weather in Pirna — Graph

°F

Pirna temperature yesterday

Maximum temperature yesterday: 92 °F (at 4:00 PM)
Minimum temperature yesterday: 66 °F (at 6:00 AM)
Average temperature yesterday: 79 °F

Past Weeks' High & Low Weather Summary

 TemperatureHumidityPressure
High92 °F (Aug 31, 4:00 PM)100% (Aug 17, 10:00 PM)30.31 "Hg (Aug 17, 10:00 PM)
Low51 °F (Aug 22, 6:00 AM)29% (Aug 22, 3:00 PM)29.68 "Hg (Sep 1, 5:00 PM)
Average67 °F69%30.02 "Hg
* Reported Aug 17 9:00 PM — Sep 1 9:00 PM, Pirna, Weather by CustomWeather, © 2015

Note: Actual official high and low records may vary slightly from our data, if they occured in-between our weather recording intervals... More about our weather records

Advertising

Pirna weather history for previous 24 hours

 ConditionsComfort  
Time TempWeatherWind HumidityBarometerVisibility
9:00 PM
Tue, Sep 1
64 °FLow clouds.7 mph97%29.84 "Hg10 mi
8:00 PM68 °FOvercast.5 mph92%29.79 "Hg8 mi
7:00 PM69 °FThunderstorms. Overcast.2 mph92%29.78 "Hg11 mi
6:00 PM67 °FThundershowers. Overcast.14 mph91%29.77 "Hg1 mi
5:00 PM81 °FThundershowers. Partly sunny.9 mph50%29.68 "Hg19 mi
4:00 PM85 °FScattered clouds.2 mph48%29.69 "Hg22 mi
3:00 PM86 °FPassing clouds.2 mph47%29.70 "Hg19 mi
2:00 PM84 °FPassing clouds.2 mph47%29.72 "Hg17 mi
1:00 PM81 °FPassing clouds.1 mph53%29.75 "Hg19 mi
12:00 PM79 °FPassing clouds.2 mph63%29.76 "Hg22 mi
10:00 AM76 °FSunny.3 mph59%29.78 "Hg22 mi
9:00 AM76 °FSunny.3 mph56%29.77 "Hg25 mi
8:00 AM72 °FSunny.2 mph74%29.78 "Hg25 mi
7:00 AM69 °FPassing clouds.2 mph83%29.78 "Hg22 mi
4:00 AM72 °FPassing clouds.3 mph77%29.76 "Hg22 mi
3:00 AM74 °FPassing clouds.2 mph74%29.77 "Hg22 mi
2:00 AM76 °FPassing clouds.3 mph71%29.77 "Hg22 mi
1:00 AM79 °FThunderstorms. Overcast.2 mph59%29.77 "Hg22 mi
10:00 PM
Mon, Aug 31
81 °FPassing clouds.5 mph55%29.78 "Hg19 mi
Weather by CustomWeather, © 2015

See weather overviewHow to use our weather pages